Location: *
(28.3744°N, 81.5492°W)
Time: 03:06:58
(UTC+00:00)

Cosmos 1862 - Pass Details

Date: 15 June 2025
Orbit: 479 x 494 km, 82.5° (Epoch: 11 July)

Event Time Altitude Azimuth Distance (km) Brightness Sun altitude
Exits shadow 09:07:53 18° 180° (S) 1,262 4.8 -15.8°
Maximum altitude 09:10:32 78° 94° (E) 509 3.2 -15.3°
Drops below altitude 10° 09:14:14 10° 9° (N) 1,695 6.5 -14.7°
Sets 09:16:21 0° 8° (N) 2,581 7.5 -14.3°
